Time,TemperatureF,DewpointF,PressureIn,WindDirection,WindDirectionDegrees,WindSpeedMPH,WindSpeedGustMPH,Humidity,HourlyPrecipIn,Conditions,Clouds,dailyrainin,SolarRadiationWatts/m^2,SoftwareType,DateUTC
2013-02-20 00:02:00,20.0,16.0,-100.00,WNW,287,6.0,21.0,83,0.00,,,0.19,0.000000,,2013-02-20 05:02:00,
2013-02-20 00:32:00,17.0,9.0,-100.00,WNW,292,9.0,30.0,71,0.00,,,0.19,0.000000,,2013-02-20 05:32:00,
2013-02-20 00:43:00,17.0,9.0,-100.00,WNW,292,9.0,30.0,71,0.00,,,0.19,0.000000,,2013-02-20 05:43:00,
2013-02-20 00:52:00,17.0,9.0,-100.00,WNW,292,9.0,30.0,71,0.00,,,0.19,0.000000,,2013-02-20 05:52:00,
2013-02-20 01:02:00,17.0,9.0,-100.00,WNW,292,9.0,30.0,71,0.00,,,0.19,0.000000,,2013-02-20 06:02:00,
2013-02-20 01:32:00,16.0,11.0,-100.00,NW,312,9.0,25.0,80,0.00,,,0.19,0.000000,,2013-02-20 06:32:00,
2013-02-20 01:42:00,16.0,11.0,-100.00,NW,312,9.0,25.0,80,0.00,,,0.19,0.000000,,2013-02-20 06:42:00,
2013-02-20 01:52:00,16.0,11.0,-100.00,NW,312,9.0,25.0,80,0.00,,,0.19,0.000000,,2013-02-20 06:52:00,
2013-02-20 02:02:00,16.0,11.0,-100.00,NW,312,9.0,25.0,80,0.00,,,0.19,0.000000,,2013-02-20 07:02:00,
2013-02-20 04:32:00,12.0,4.0,-100.00,WNW,289,9.0,24.0,70,-99.99,,,0.19,0.000000,,2013-02-20 09:32:00,
2013-02-20 04:42:00,12.0,4.0,-100.00,WNW,289,9.0,24.0,70,-99.99,,,0.19,0.000000,,2013-02-20 09:42:00,
2013-02-20 04:52:00,12.0,4.0,-100.00,WNW,289,9.0,24.0,70,-99.99,,,0.19,0.000000,,2013-02-20 09:52:00,
2013-02-20 05:01:00,12.0,4.0,-100.00,WNW,289,9.0,24.0,70,-99.99,,,0.19,0.000000,,2013-02-20 10:01:00,
2013-02-20 05:32:00,12.0,5.0,-100.00,WNW,286,8.0,21.0,72,0.00,,,0.19,0.000000,,2013-02-20 10:32:00,
2013-02-20 05:42:00,12.0,5.0,-100.00,WNW,286,8.0,21.0,72,0.00,,,0.19,0.000000,,2013-02-20 10:42:00,
2013-02-20 05:52:00,12.0,5.0,-100.00,WNW,286,8.0,21.0,72,0.00,,,0.19,0.000000,,2013-02-20 10:52:00,
2013-02-20 06:02:00,12.0,5.0,-100.00,WNW,286,8.0,21.0,72,0.00,,,0.19,0.000000,,2013-02-20 11:02:00,
2013-02-20 06:32:00,11.0,5.0,-100.00,West,279,8.0,20.0,75,0.00,,,0.19,0.000000,,2013-02-20 11:32:00,
2013-02-20 06:42:00,11.0,5.0,-100.00,West,279,8.0,20.0,75,0.00,,,0.19,0.000000,,2013-02-20 11:42:00,
2013-02-20 06:52:00,11.0,5.0,-100.00,West,279,8.0,20.0,75,0.00,,,0.19,0.000000,,2013-02-20 11:52:00,
2013-02-20 07:02:00,11.0,5.0,-100.00,West,279,8.0,20.0,75,0.00,,,0.19,0.000000,,2013-02-20 12:02:00,
2013-02-20 07:32:00,11.0,5.0,-100.00,West,281,9.0,19.0,75,0.00,,,0.19,1.000000,,2013-02-20 12:32:00,
2013-02-20 07:42:00,11.0,5.0,-100.00,West,281,9.0,19.0,75,0.00,,,0.19,1.000000,,2013-02-20 12:42:00,
2013-02-20 07:53:00,11.0,5.0,-100.00,West,281,9.0,19.0,75,0.00,,,0.19,1.000000,,2013-02-20 12:53:00,
2013-02-20 08:01:00,11.0,5.0,-100.00,West,281,9.0,19.0,75,0.00,,,0.19,1.000000,,2013-02-20 13:01:00,
2013-02-20 09:32:00,13.0,8.0,-100.00,West,275,8.0,18.0,79,-99.99,,,0.19,104.000000,,2013-02-20 14:32:00,
2013-02-20 09:42:00,13.0,8.0,-100.00,West,275,8.0,18.0,79,-99.99,,,0.19,104.000000,,2013-02-20 14:42:00,
2013-02-20 09:52:00,13.0,8.0,-100.00,West,275,8.0,18.0,79,-99.99,,,0.19,104.000000,,2013-02-20 14:52:00,
2013-02-20 10:02:00,13.0,8.0,-100.00,West,275,8.0,18.0,79,-99.99,,,0.19,104.000000,,2013-02-20 15:02:00,
2013-02-20 10:32:00,15.0,9.0,-100.00,WNW,284,9.0,21.0,75,0.00,,,0.19,210.000000,,2013-02-20 15:32:00,
2013-02-20 10:42:00,15.0,9.0,-100.00,WNW,284,9.0,21.0,75,0.00,,,0.19,210.000000,,2013-02-20 15:42:00,
2013-02-20 10:52:00,15.0,9.0,-100.00,WNW,284,9.0,21.0,75,0.00,,,0.19,210.000000,,2013-02-20 15:52:00,
2013-02-20 11:01:00,15.0,9.0,-100.00,WNW,284,9.0,21.0,75,0.00,,,0.19,210.000000,,2013-02-20 16:01:00,
2013-02-20 11:32:00,17.0,10.0,-100.00,WNW,293,7.0,22.0,73,0.00,,,-99.99,236.000000,,2013-02-20 16:32:00,
2013-02-20 11:42:00,17.0,10.0,-100.00,WNW,293,7.0,22.0,73,0.00,,,-99.99,236.000000,,2013-02-20 16:42:00,
2013-02-20 11:52:00,17.0,10.0,-100.00,WNW,293,7.0,22.0,73,0.00,,,-99.99,236.000000,,2013-02-20 16:52:00,
2013-02-20 12:01:00,17.0,10.0,-100.00,WNW,293,7.0,22.0,73,0.00,,,-99.99,236.000000,,2013-02-20 17:01:00,
2013-02-20 12:32:00,17.0,7.0,-100.00,WNW,302,10.0,24.0,63,0.00,,,0.19,393.000000,,2013-02-20 17:32:00,
2013-02-20 12:42:00,17.0,7.0,-100.00,WNW,302,10.0,24.0,63,0.00,,,0.19,393.000000,,2013-02-20 17:42:00,
2013-02-20 12:52:00,17.0,7.0,-100.00,WNW,302,10.0,24.0,63,0.00,,,0.19,393.000000,,2013-02-20 17:52:00,
2013-02-20 13:02:00,17.0,7.0,-100.00,WNW,302,10.0,24.0,63,0.00,,,0.19,393.000000,,2013-02-20 18:02:00,
2013-02-20 13:32:00,18.0,6.0,-100.00,WNW,285,10.0,25.0,59,0.00,,,-99.99,299.000000,,2013-02-20 18:32:00,
2013-02-20 13:42:00,18.0,6.0,-100.00,WNW,285,10.0,25.0,59,0.00,,,-99.99,299.000000,,2013-02-20 18:42:00,
2013-02-20 13:52:00,18.0,6.0,-100.00,WNW,285,10.0,25.0,59,0.00,,,-99.99,299.000000,,2013-02-20 18:52:00,
2013-02-20 14:01:00,18.0,6.0,-100.00,WNW,285,10.0,25.0,59,0.00,,,-99.99,299.000000,,2013-02-20 19:01:00,
2013-02-20 14:32:00,20.0,8.0,-100.00,NW,319,9.0,23.0,58,0.00,,,0.19,391.000000,,2013-02-20 19:32:00,
2013-02-20 14:42:00,20.0,8.0,-100.00,NW,319,9.0,23.0,58,0.00,,,0.19,391.000000,,2013-02-20 19:42:00,
2013-02-20 14:52:00,20.0,8.0,-100.00,NW,319,9.0,23.0,58,0.00,,,0.19,391.000000,,2013-02-20 19:52:00,
2013-02-20 15:01:00,20.0,8.0,-100.00,NW,319,9.0,23.0,58,0.00,,,0.19,391.000000,,2013-02-20 20:01:00,
2013-02-20 15:31:00,19.0,4.0,-100.00,WNW,294,10.0,26.0,52,0.00,,,0.09,285.000000,,2013-02-20 20:31:00,
2013-02-20 15:41:00,19.0,4.0,-100.00,WNW,294,10.0,26.0,52,0.00,,,0.09,285.000000,,2013-02-20 20:41:00,
2013-02-20 15:52:00,19.0,4.0,-100.00,WNW,294,10.0,26.0,52,0.00,,,0.09,285.000000,,2013-02-20 20:52:00,
2013-02-20 16:01:00,19.0,4.0,-100.00,WNW,294,10.0,26.0,52,0.00,,,0.09,285.000000,,2013-02-20 21:01:00,
2013-02-20 16:32:00,17.0,2.0,-100.00,NW,309,10.0,22.0,52,0.00,,,0.01,161.000000,,2013-02-20 21:32:00,
2013-02-20 16:42:00,17.0,2.0,-100.00,NW,309,10.0,22.0,52,0.00,,,0.01,161.000000,,2013-02-20 21:42:00,
2013-02-20 16:52:00,17.0,2.0,-100.00,NW,309,10.0,22.0,52,0.00,,,0.01,161.000000,,2013-02-20 21:52:00,
2013-02-20 17:02:00,17.0,2.0,-100.00,NW,309,10.0,22.0,52,0.00,,,0.01,161.000000,,2013-02-20 22:02:00,
2013-02-20 17:32:00,15.0,3.0,-100.00,NW,305,8.0,19.0,57,0.00,,,0.00,59.000000,,2013-02-20 22:32:00,
2013-02-20 17:43:00,15.0,3.0,-100.00,NW,305,8.0,19.0,57,0.00,,,0.00,59.000000,,2013-02-20 22:43:00,
2013-02-20 17:52:00,15.0,3.0,-100.00,NW,305,8.0,19.0,57,0.00,,,0.00,59.000000,,2013-02-20 22:52:00,
2013-02-20 18:01:00,15.0,3.0,-100.00,NW,305,8.0,19.0,57,0.00,,,0.00,59.000000,,2013-02-20 23:01:00,
2013-02-20 18:32:00,14.0,5.0,-100.00,NW,306,8.0,21.0,67,0.00,,,0.00,12.000000,,2013-02-20 23:32:00,
2013-02-20 18:43:00,14.0,5.0,-100.00,NW,306,8.0,21.0,67,0.00,,,0.00,12.000000,,2013-02-20 23:43:00,
2013-02-20 18:53:00,14.0,5.0,-100.00,NW,306,8.0,21.0,67,0.00,,,0.00,12.000000,,2013-02-20 23:53:00,
2013-02-20 19:03:00,14.0,5.0,-100.00,NW,306,8.0,21.0,67,0.00,,,0.00,12.000000,,2013-02-21 00:03:00,
2013-02-20 19:32:00,13.0,6.0,-100.00,NW,319,7.0,27.0,73,0.00,,,0.00,0.000000,,2013-02-21 00:32:00,
2013-02-20 19:42:00,13.0,6.0,-100.00,NW,319,7.0,27.0,73,0.00,,,0.00,0.000000,,2013-02-21 00:42:00,
2013-02-20 19:52:00,13.0,6.0,-100.00,NW,319,7.0,27.0,73,0.00,,,0.00,0.000000,,2013-02-21 00:52:00,
2013-02-20 20:01:00,13.0,6.0,-100.00,NW,319,7.0,27.0,73,0.00,,,0.00,0.000000,,2013-02-21 01:01:00,
2013-02-20 20:32:00,13.0,6.0,-100.00,WNW,299,6.0,21.0,73,0.00,,,0.00,0.000000,,2013-02-21 01:32:00,
2013-02-20 20:42:00,13.0,6.0,-100.00,WNW,299,6.0,21.0,73,0.00,,,0.00,0.000000,,2013-02-21 01:42:00,
2013-02-20 20:52:00,13.0,6.0,-100.00,WNW,299,6.0,21.0,73,0.00,,,0.00,0.000000,,2013-02-21 01:52:00,
2013-02-20 21:02:00,13.0,6.0,-100.00,WNW,299,6.0,21.0,73,0.00,,,0.00,0.000000,,2013-02-21 02:02:00,
2013-02-20 21:32:00,13.0,6.0,-100.00,NW,309,8.0,19.0,74,0.00,,,0.00,0.000000,,2013-02-21 02:32:00,
2013-02-20 21:42:00,13.0,6.0,-100.00,NW,309,8.0,19.0,74,0.00,,,0.00,0.000000,,2013-02-21 02:42:00,
2013-02-20 21:52:00,13.0,6.0,-100.00,NW,309,8.0,19.0,74,0.00,,,0.00,0.000000,,2013-02-21 02:52:00,
2013-02-20 22:02:00,13.0,6.0,-100.00,NW,309,8.0,19.0,74,0.00,,,0.00,0.000000,,2013-02-21 03:02:00,
2013-02-20 22:32:00,13.0,7.0,-100.00,NW,309,6.0,19.0,78,0.00,,,0.00,0.000000,,2013-02-21 03:32:00,
2013-02-20 22:42:00,13.0,7.0,-100.00,NW,309,6.0,19.0,78,0.00,,,0.00,0.000000,,2013-02-21 03:42:00,
2013-02-20 22:52:00,13.0,7.0,-100.00,NW,309,6.0,19.0,78,0.00,,,0.00,0.000000,,2013-02-21 03:52:00,
2013-02-20 23:01:00,13.0,7.0,-100.00,NW,309,6.0,19.0,78,0.00,,,0.00,0.000000,,2013-02-21 04:01:00,
2013-02-20 23:32:00,13.0,7.0,-100.00,WNW,300,9.0,19.0,77,0.00,,,0.00,0.000000,,2013-02-21 04:32:00,
2013-02-20 23:42:00,13.0,7.0,-100.00,WNW,300,9.0,19.0,77,0.00,,,0.00,0.000000,,2013-02-21 04:42:00,
2013-02-20 23:52:00,13.0,7.0,-100.00,WNW,300,9.0,19.0,77,0.00,,,0.00,0.000000,,2013-02-21 04:52:00,